JBU9238 KDTW-KDCA

Flight info

Callsign JBU9238
Flight time N/A
Altitude 34000
Route LIDDS4 GRIVY LUISE FRDMM6
Aircraft A321/M-SDE3FGHIRWY/L

Departure

Time 2026-05-07 01:10
Airport Detroit Metropolitan Wayne County Airport (KDTW)

Arrival

Time N/A
Airport Ronald Reagan Washington National Airport (KDCA)
Time Latitude Longitude Altitude Speed Heading
2026-05-07 00:15 42.20537 -83.36091 650 ft 0 kts 120°
2026-05-07 00:37 42.20539 -83.36097 650 ft 4 kts 118°
2026-05-07 00:37 42.20550 -83.36129 650 ft 4 kts 114°
2026-05-07 00:37 42.20561 -83.36157 651 ft 4 kts 127°
2026-05-07 00:38 42.20580 -83.36179 652 ft 4 kts 170°
2026-05-07 00:38 42.20603 -83.36174 651 ft 4 kts 210°
2026-05-07 00:38 42.20625 -83.36154 651 ft 4 kts 219°
2026-05-07 00:38 42.20643 -83.36135 652 ft 1 kts 207°
2026-05-07 00:39 42.20644 -83.36135 652 ft 0 kts 207°
2026-05-07 00:40 42.20641 -83.36137 653 ft 3 kts 209°
2026-05-07 00:41 42.20621 -83.36158 651 ft 4 kts 219°
2026-05-07 00:41 42.20599 -83.36177 650 ft 4 kts 206°
2026-05-07 00:41 42.20575 -83.36176 650 ft 4 kts 161°
2026-05-07 00:41 42.20559 -83.36154 650 ft 4 kts 124°
2026-05-07 00:42 42.20549 -83.36127 650 ft 4 kts 112°
2026-05-07 00:42 42.20539 -83.36095 650 ft 3 kts 119°
2026-05-07 00:42 42.20537 -83.36090 650 ft 0 kts 120°
2026-05-07 00:47 42.20537 -83.36091 650 ft 1 kts 120°
2026-05-07 00:47 42.20549 -83.36118 650 ft 4 kts 119°
2026-05-07 00:48 42.20558 -83.36144 650 ft 2 kts 109°
2026-05-07 00:48 42.20568 -83.36170 650 ft 4 kts 153°
2026-05-07 00:48 42.20591 -83.36173 650 ft 4 kts 201°
2026-05-07 00:48 42.20613 -83.36159 650 ft 4 kts 210°
2026-05-07 00:49 42.20636 -83.36141 650 ft 4 kts 208°
2026-05-07 00:49 42.20645 -83.36134 652 ft 0 kts 207°
2026-05-07 00:55 42.20621 -83.36152 650 ft 14 kts 208°
2026-05-07 00:55 42.20545 -83.36210 650 ft 16 kts 211°
2026-05-07 00:55 42.20488 -83.36257 650 ft 0 kts 213°
2026-05-07 00:57 42.20486 -83.36258 650 ft 1 kts 209°
2026-05-07 00:57 42.20479 -83.36262 652 ft 0 kts 206°
2026-05-07 00:59 42.20475 -83.36265 651 ft 0 kts 206°
2026-05-07 01:04 42.20469 -83.36268 643 ft 2 kts 205°
2026-05-07 01:04 42.20446 -83.36283 651 ft 5 kts 205°
2026-05-07 01:05 42.20406 -83.36310 650 ft 8 kts 207°
2026-05-07 01:05 42.20350 -83.36350 650 ft 11 kts 207°
2026-05-07 01:05 42.20273 -83.36389 650 ft 13 kts 192°
2026-05-07 01:05 42.20196 -83.36334 652 ft 15 kts 119°
2026-05-07 01:06 42.20168 -83.36195 650 ft 17 kts 98°
2026-05-07 01:06 42.20163 -83.36031 650 ft 19 kts 89°
2026-05-07 01:06 42.20166 -83.35844 650 ft 21 kts 89°
2026-05-07 01:06 42.20169 -83.35632 650 ft 23 kts 89°
2026-05-07 01:07 42.20173 -83.35426 650 ft 22 kts 88°
2026-05-07 01:07 42.20176 -83.35298 650 ft 12 kts 87°
2026-05-07 01:07 42.20208 -83.35189 650 ft 14 kts 43°
2026-05-07 01:07 42.20298 -83.35113 650 ft 17 kts 30°
2026-05-07 01:08 42.20404 -83.35037 652 ft 19 kts 27°
2026-05-07 01:08 42.20533 -83.35011 650 ft 20 kts
2026-05-07 01:08 42.20654 -83.34935 651 ft 15 kts 22°
2026-05-07 01:08 42.20735 -83.34980 650 ft 16 kts 302°
2026-05-07 01:09 42.20811 -83.35064 648 ft 10 kts 355°
2026-05-07 01:09 42.20843 -83.35063 648 ft 0 kts
2026-05-07 01:09 42.20847 -83.35061 648 ft 4 kts 11°
2026-05-07 01:09 42.21032 -83.34947 648 ft 64 kts 26°
2026-05-07 01:10 42.21691 -83.34476 653 ft 146 kts 27°
2026-05-07 01:10 42.22680 -83.33763 889 ft 185 kts 27°
2026-05-07 01:10 42.23756 -83.32964 1351 ft 190 kts 27°
2026-05-07 01:10 42.24969 -83.32082 1569 ft 213 kts 26°
2026-05-07 01:11 42.26341 -83.31093 1884 ft 235 kts 26°
2026-05-07 01:11 42.27731 -83.30086 2638 ft 240 kts 25°
2026-05-07 01:11 42.29053 -83.28688 3454 ft 249 kts 53°
2026-05-07 01:11 42.29589 -83.26484 4225 ft 257 kts 91°
2026-05-07 01:12 42.29085 -83.24147 5034 ft 259 kts 119°
2026-05-07 01:12 42.28236 -83.22033 5878 ft 261 kts 121°
2026-05-07 01:12 42.27328 -83.19957 6710 ft 264 kts 123°
2026-05-07 01:12 42.26390 -83.17915 7473 ft 267 kts 124°
2026-05-07 01:13 42.25390 -83.15753 8274 ft 271 kts 124°
2026-05-07 01:13 42.24381 -83.13562 9069 ft 276 kts 124°
2026-05-07 01:13 42.23374 -83.11354 9859 ft 280 kts 124°
2026-05-07 01:13 42.22378 -83.09151 10540 ft 285 kts 125°
2026-05-07 01:14 42.21338 -83.06835 11205 ft 291 kts 125°
2026-05-07 01:14 42.20372 -83.04601 11836 ft 296 kts 125°
2026-05-07 01:14 42.19206 -83.02320 12461 ft 298 kts 134°
2026-05-07 01:14 42.17957 -83.00187 13078 ft 303 kts 135°
2026-05-07 01:15 42.16586 -82.97919 13771 ft 308 kts 136°
2026-05-07 01:15 42.15176 -82.95621 13964 ft 331 kts 136°
2026-05-07 01:15 42.13680 -82.93188 14128 ft 352 kts 136°
2026-05-07 01:15 42.12109 -82.90606 14591 ft 361 kts 136°
2026-05-07 01:16 42.10533 -82.87988 15188 ft 365 kts 136°
2026-05-07 01:16 42.08986 -82.85401 15800 ft 369 kts 136°
2026-05-07 01:16 42.07455 -82.82837 16396 ft 372 kts 136°
2026-05-07 01:16 42.05838 -82.80137 17011 ft 376 kts 137°
2026-05-07 01:17 42.04523 -82.77952 17483 ft 378 kts 137°
2026-05-07 01:17 42.02864 -82.75200 18062 ft 383 kts 137°
2026-05-07 01:17 42.01264 -82.72549 18546 ft 387 kts 137°
2026-05-07 01:17 41.99558 -82.69724 19091 ft 390 kts 137°
2026-05-07 01:18 41.97838 -82.66881 19624 ft 394 kts 137°
2026-05-07 01:18 41.96269 -82.64290 20110 ft 397 kts 137°
2026-05-07 01:18 41.94617 -82.61563 20518 ft 402 kts 138°
2026-05-07 01:18 41.92839 -82.58634 21005 ft 406 kts 138°
2026-05-07 01:19 41.91043 -82.55678 21521 ft 410 kts 139°
2026-05-07 01:19 41.89268 -82.52758 22035 ft 413 kts 139°
2026-05-07 01:19 41.87446 -82.49760 22557 ft 416 kts 139°
2026-05-07 01:19 41.85611 -82.46733 23045 ft 420 kts 139°
2026-05-07 01:20 41.83746 -82.43670 23578 ft 423 kts 139°
2026-05-07 01:20 41.81875 -82.40606 23996 ft 426 kts 140°
2026-05-07 01:20 41.79994 -82.37532 24325 ft 431 kts 140°
2026-05-07 01:20 41.78083 -82.34419 24673 ft 436 kts 141°
2026-05-07 01:21 41.76152 -82.31272 25047 ft 441 kts 141°
2026-05-07 01:21 41.74188 -82.28064 25436 ft 445 kts 141°
2026-05-07 01:21 41.72216 -82.24839 25792 ft 449 kts 142°
2026-05-07 01:21 41.70291 -82.21696 26083 ft 455 kts 143°
2026-05-07 01:22 41.68287 -82.18436 26422 ft 459 kts 143°
2026-05-07 01:22 41.66236 -82.15106 26788 ft 463 kts 143°
2026-05-07 01:22 41.64176 -82.11769 27150 ft 466 kts 143°
2026-05-07 01:22 41.62099 -82.08404 27513 ft 470 kts 143°
2026-05-07 01:23 41.60011 -82.05020 27862 ft 473 kts 144°
2026-05-07 01:23 41.57917 -82.01627 28204 ft 476 kts 144°
2026-05-07 01:23 41.55822 -81.98236 28547 ft 480 kts 144°
2026-05-07 01:23 41.53661 -81.94743 28893 ft 483 kts 144°
2026-05-07 01:24 41.51518 -81.91288 29229 ft 486 kts 145°
2026-05-07 01:24 41.49386 -81.87859 29548 ft 489 kts 145°
2026-05-07 01:24 41.47947 -81.85548 29649 ft 491 kts 145°
2026-05-07 01:25 41.46109 -81.81714 30302 ft 492 kts 125°
2026-05-07 01:25 41.45369 -81.79108 31819 ft 462 kts 123°
2026-05-07 01:25 41.44206 -81.75472 33014 ft 409 kts 143°
2026-05-07 01:25 41.41939 -81.72039 32595 ft 358 kts 175°
2026-05-07 01:26 41.40487 -81.71103 31789 ft 334 kts 193°
2026-05-07 01:26 41.38435 -81.71113 31400 ft 272 kts 222°
2026-05-07 01:26 41.37188 -81.72375 32366 ft 194 kts 251°
2026-05-07 01:26 41.37041 -81.73917 33513 ft 170 kts 276°
2026-05-07 01:27 41.37826 -81.75289 33621 ft 222 kts 300°
2026-05-07 01:27 41.39543 -81.76220 32744 ft 322 kts 327°
2026-05-07 01:27 41.42066 -81.76072 32210 ft 415 kts 355°
2026-05-07 01:27 41.44758 -81.74326 32787 ft 459 kts 23°
2026-05-07 01:28 41.46969 -81.71194 33761 ft 472 kts 48°
2026-05-07 01:28 41.48394 -81.67330 33983 ft 491 kts 72°
2026-05-07 01:28 41.48975 -81.62736 33259 ft 513 kts 98°
2026-05-07 01:28 41.48690 -81.59433 32900 ft 510 kts 117°
2026-05-07 01:29 41.47814 -81.56399 33066 ft 476 kts 137°
2026-05-07 01:29 41.46104 -81.52783 33017 ft 458 kts 151°
2026-05-07 01:29 41.43894 -81.50041 33024 ft 425 kts 167°
2026-05-07 01:30 41.38976 -81.46042 33026 ft 427 kts 171°
2026-05-07 01:30 41.33715 -81.41966 33024 ft 446 kts 171°
2026-05-07 01:31 41.28226 -81.37712 33023 ft 466 kts 169°
2026-05-07 01:31 41.22563 -81.33297 32953 ft 484 kts 168°
2026-05-07 01:32 41.16662 -81.28681 32958 ft 500 kts 168°
2026-05-07 01:32 41.10648 -81.23985 32929 ft 511 kts 167°
2026-05-07 01:32 41.07523 -81.21837 32922 ft 487 kts 177°
2026-05-07 01:33 41.04370 -81.20564 32931 ft 469 kts 184°
2026-05-07 01:33 40.98404 -81.18458 32917 ft 469 kts 184°
2026-05-07 01:34 40.92069 -81.16254 33077 ft 470 kts 184°
2026-05-07 01:34 40.85812 -81.14064 33081 ft 469 kts 184°
2026-05-07 01:35 40.79532 -81.11850 33085 ft 469 kts 184°
2026-05-07 01:35 40.73204 -81.09636 33010 ft 471 kts 183°
2026-05-07 01:36 40.66935 -81.07449 33007 ft 471 kts 183°
2026-05-07 01:36 40.60578 -81.05223 33008 ft 471 kts 183°
2026-05-07 01:37 40.54239 -81.03013 32958 ft 471 kts 183°
2026-05-07 01:37 40.47903 -81.00823 33012 ft 472 kts 183°
2026-05-07 01:38 40.41553 -80.98622 33017 ft 472 kts 183°
2026-05-07 01:38 40.35225 -80.96426 33362 ft 471 kts 183°
2026-05-07 01:38 40.32074 -80.95330 33621 ft 470 kts 184°
2026-05-07 01:39 40.28989 -80.94262 33868 ft 469 kts 184°
2026-05-07 01:39 40.25819 -80.93173 33976 ft 470 kts 184°
2026-05-07 01:39 40.22650 -80.92087 33994 ft 471 kts 184°
2026-05-07 01:40 40.16314 -80.89917 33986 ft 471 kts 184°
2026-05-07 01:40 40.09994 -80.87753 33947 ft 472 kts 184°
2026-05-07 01:41 40.03680 -80.85587 34001 ft 472 kts 184°
2026-05-07 01:41 39.97315 -80.83401 34001 ft 472 kts 184°
2026-05-07 01:42 39.91035 -80.81256 34001 ft 472 kts 184°
2026-05-07 01:42 39.84719 -80.79105 33980 ft 472 kts 184°
2026-05-07 01:43 39.78340 -80.76943 33994 ft 472 kts 184°
2026-05-07 01:43 39.72077 -80.74818 34004 ft 472 kts 184°
2026-05-07 01:44 39.65749 -80.72668 33940 ft 472 kts 184°
2026-05-07 01:44 39.59466 -80.70459 33972 ft 486 kts 178°
2026-05-07 01:44 39.56401 -80.68279 33995 ft 534 kts 158°
2026-05-07 01:45 39.53709 -80.64711 33997 ft 575 kts 138°
2026-05-07 01:45 39.51773 -80.60071 34006 ft 606 kts 119°
2026-05-07 01:45 39.50655 -80.54735 33999 ft 619 kts 107°
2026-05-07 01:46 39.48968 -80.43815 33987 ft 613 kts 114°
2026-05-07 01:46 39.47562 -80.38755 33986 ft 600 kts 122°
2026-05-07 01:46 39.45969 -80.33793 33998 ft 600 kts 122°
2026-05-07 01:47 39.42839 -80.24070 34001 ft 599 kts 122°
2026-05-07 01:47 39.39677 -80.14250 33979 ft 599 kts 122°
2026-05-07 01:48 39.36524 -80.04448 33662 ft 588 kts 121°
2026-05-07 01:48 39.34982 -79.99657 33261 ft 580 kts 122°
2026-05-07 01:48 39.33448 -79.94911 32840 ft 574 kts 122°
2026-05-07 01:48 39.31926 -79.90226 32442 ft 569 kts 122°
2026-05-07 01:49 39.30392 -79.85514 32011 ft 566 kts 121°
2026-05-07 01:49 39.29277 -79.80678 31600 ft 576 kts 105°
2026-05-07 01:49 39.28910 -79.75640 31189 ft 575 kts 98°
2026-05-07 01:49 39.28603 -79.70655 30817 ft 568 kts 99°
2026-05-07 01:50 39.28216 -79.65694 30415 ft 562 kts 101°
2026-05-07 01:50 39.27791 -79.60922 30003 ft 557 kts 101°
2026-05-07 01:50 39.27337 -79.56014 29505 ft 553 kts 101°
2026-05-07 01:50 39.26889 -79.51086 28998 ft 549 kts 101°
2026-05-07 01:51 39.26461 -79.46191 28497 ft 545 kts 101°
2026-05-07 01:51 39.26063 -79.41404 27971 ft 541 kts 100°
2026-05-07 01:51 39.25685 -79.36700 27567 ft 535 kts 100°
2026-05-07 01:51 39.25305 -79.31885 27100 ft 530 kts 100°
2026-05-07 01:52 39.24935 -79.27230 26649 ft 526 kts 100°
2026-05-07 01:52 39.24555 -79.22559 26197 ft 522 kts 100°
2026-05-07 01:52 39.24164 -79.17896 25749 ft 518 kts 101°
2026-05-07 01:52 39.23772 -79.13304 25300 ft 515 kts 101°
2026-05-07 01:53 39.23377 -79.08714 24910 ft 512 kts 101°
2026-05-07 01:53 39.22986 -79.04192 24518 ft 509 kts 100°
2026-05-07 01:53 39.22590 -78.99669 24138 ft 505 kts 100°
2026-05-07 01:53 39.22196 -78.95176 23742 ft 502 kts 100°
2026-05-07 01:54 39.21789 -78.90725 23360 ft 499 kts 101°
2026-05-07 01:54 39.21369 -78.86356 22959 ft 495 kts 101°
2026-05-07 01:54 39.20932 -78.81953 22538 ft 491 kts 101°
2026-05-07 01:54 39.20497 -78.77606 22194 ft 487 kts 101°
2026-05-07 01:55 39.20077 -78.73369 21813 ft 482 kts 101°
2026-05-07 01:55 39.19655 -78.69079 21420 ft 478 kts 101°
2026-05-07 01:55 39.19242 -78.64870 21032 ft 473 kts 101°
2026-05-07 01:55 39.18835 -78.60710 20663 ft 468 kts 101°
2026-05-07 01:56 39.18428 -78.56555 20301 ft 464 kts 101°
2026-05-07 01:56 39.18026 -78.52461 19735 ft 454 kts 101°
2026-05-07 01:56 39.17630 -78.48471 18903 ft 452 kts 101°
2026-05-07 01:56 39.17236 -78.44536 18613 ft 445 kts 101°
2026-05-07 01:57 39.16838 -78.40619 18278 ft 439 kts 101°
2026-05-07 01:57 39.16392 -78.36749 17867 ft 433 kts 104°
2026-05-07 01:57 39.15741 -78.33000 17441 ft 427 kts 109°
2026-05-07 01:57 39.14943 -78.29476 17225 ft 415 kts 113°
2026-05-07 01:58 39.14060 -78.26084 17085 ft 402 kts 115°
2026-05-07 01:58 39.13152 -78.22777 16970 ft 390 kts 115°
2026-05-07 01:58 39.12258 -78.19527 16783 ft 382 kts 115°
2026-05-07 01:58 39.11414 -78.16379 16482 ft 378 kts 115°
2026-05-07 01:59 39.10594 -78.13225 16154 ft 375 kts 114°
2026-05-07 01:59 39.09789 -78.10043 15823 ft 373 kts 113°
2026-05-07 01:59 39.08994 -78.06876 15501 ft 370 kts 113°
2026-05-07 01:59 39.08211 -78.03778 15179 ft 367 kts 114°
2026-05-07 02:00 39.07418 -78.00674 14853 ft 364 kts 114°
2026-05-07 02:00 39.06642 -77.97643 14540 ft 361 kts 114°
2026-05-07 02:00 39.05868 -77.94623 14214 ft 358 kts 114°
2026-05-07 02:00 39.05094 -77.91606 13748 ft 353 kts 114°
2026-05-07 02:01 39.04332 -77.88632 13206 ft 347 kts 113°
2026-05-07 02:01 39.03590 -77.85734 12764 ft 346 kts 113°
2026-05-07 02:01 39.02842 -77.82815 12527 ft 339 kts 114°
2026-05-07 02:01 39.02124 -77.80028 12407 ft 330 kts 114°
2026-05-07 02:02 39.01414 -77.77279 12278 ft 321 kts 114°
2026-05-07 02:02 39.00725 -77.74618 12166 ft 313 kts 114°
2026-05-07 02:02 39.00054 -77.72015 11852 ft 305 kts 114°
2026-05-07 02:02 38.99383 -77.69423 11424 ft 302 kts 114°
2026-05-07 02:03 38.98736 -77.66929 11303 ft 295 kts 115°
2026-05-07 02:03 38.98051 -77.64504 11141 ft 287 kts 119°
2026-05-07 02:03 38.97272 -77.62155 10640 ft 290 kts 121°
2026-05-07 02:03 38.96475 -77.59907 10457 ft 283 kts 122°
2026-05-07 02:04 38.95661 -77.57653 10247 ft 279 kts 121°
2026-05-07 02:04 38.94857 -77.55421 10027 ft 276 kts 121°
2026-05-07 02:04 38.94069 -77.53221 9769 ft 274 kts 121°
2026-05-07 02:04 38.93279 -77.51014 9479 ft 272 kts 121°
2026-05-07 02:05 38.92498 -77.48812 9184 ft 271 kts 121°
2026-05-07 02:05 38.91730 -77.46636 8909 ft 269 kts 121°
2026-05-07 02:05 38.90949 -77.44470 8635 ft 266 kts 123°
2026-05-07 02:05 38.90095 -77.42385 8367 ft 263 kts 125°
2026-05-07 02:06 38.89202 -77.40340 8085 ft 261 kts 126°
2026-05-07 02:06 38.88315 -77.38346 7821 ft 259 kts 126°
2026-05-07 02:06 38.87423 -77.36350 7555 ft 258 kts 126°
2026-05-07 02:06 38.86555 -77.34400 7282 ft 257 kts 126°
2026-05-07 02:07 38.85682 -77.32422 7057 ft 253 kts 126°
2026-05-07 02:07 38.83973 -77.28551 6521 ft 250 kts 126°
2026-05-07 02:07 38.83127 -77.26669 6260 ft 249 kts 126°
2026-05-07 02:08 38.82286 -77.24806 5967 ft 248 kts 126°
2026-05-07 02:08 38.81441 -77.22936 5690 ft 246 kts 125°
2026-05-07 02:08 38.80555 -77.20973 5353 ft 246 kts 125°
2026-05-07 02:08 38.79708 -77.19101 5068 ft 245 kts 125°
2026-05-07 02:09 38.78871 -77.17250 4801 ft 244 kts 124°
2026-05-07 02:09 38.78026 -77.15380 4540 ft 242 kts 124°
2026-05-07 02:09 38.77183 -77.13534 4266 ft 239 kts 127°
2026-05-07 02:09 38.76089 -77.12084 4028 ft 227 kts 152°
2026-05-07 02:10 38.74665 -77.11332 3976 ft 222 kts 175°
2026-05-07 02:10 38.73148 -77.11204 3979 ft 220 kts 182°
2026-05-07 02:10 38.71613 -77.11131 3980 ft 221 kts 182°
2026-05-07 02:10 38.70078 -77.11044 3980 ft 220 kts 181°
2026-05-07 02:11 38.68544 -77.10944 3980 ft 221 kts 182°
2026-05-07 02:11 38.67082 -77.10853 4001 ft 220 kts 182°
2026-05-07 02:11 38.66080 -77.10797 3998 ft 216 kts 182°
2026-05-07 02:11 38.64646 -77.10721 3896 ft 206 kts 182°
2026-05-07 02:12 38.63245 -77.10653 3745 ft 195 kts 184°
2026-05-07 02:12 38.61949 -77.10589 3423 ft 189 kts 184°
2026-05-07 02:12 38.60611 -77.10438 2904 ft 194 kts 180°
2026-05-07 02:12 38.59292 -77.10165 2527 ft 194 kts 176°
2026-05-07 02:13 38.57992 -77.09764 2463 ft 193 kts 172°
2026-05-07 02:13 38.56866 -77.09307 2653 ft 193 kts 168°
2026-05-07 02:13 38.55647 -77.08694 2931 ft 195 kts 164°
2026-05-07 02:13 38.54440 -77.07896 3032 ft 205 kts 148°